{"data":{"norad_id":59669,"intl_designator":"2024-084R","name":"STARLINK-31917","alt_names":[],"object_type":"PAYLOAD","status":"ACTIVE","operator":null,"country":"US","launch_date":"2024-05-06","launch_site_code":"AFETR","launch_vehicle":null,"mission":null,"orbit_class":"UNKNOWN","rcs_meters":null,"size_class":null,"mass_kg":null,"dimensions":null,"purposes":["comms"],"wikipedia_slug":null,"has_3d_model":false,"image_url":null,"decayed_at":null,"tle_current":{"epoch":"2026-09-21T09:29:56.928192Z","epoch_age_seconds":93893,"freshness":"FRESH","line1":"1 59669U 24084R   26264.39579778  .00000196  00000+0  16653-4 0  9998","line2":"2 59669  43.0048  16.5631 0001715 278.1569  81.9088 15.27576991134307","mean_motion":15.27576991,"eccentricity":0.0001715,"inclination_deg":43.0048,"raan_deg":16.5631,"arg_perigee_deg":278.1569,"mean_anomaly_deg":81.9088,"bstar":1.6653e-5,"rev_number":13430,"period_min":94.266934398988,"perigee_km":481.88141112223,"apogee_km":484.23480104362,"semimajor_km":6861.1951060829,"source":"CELESTRAK","updated_at":"2026-09-22T09:00:49.028667Z"}}}